Location: Beneden-Haastrecht
(52.0012°N, 4.7557°E)
Time: 01:43:17
(UTC+00:00)

Cosmos 1939 Rocket - Pass Details

Date: 24 October 2020
Orbit: 532 x 584 km, 97.4° (Epoch: 27 November)

Event Time Altitude Azimuth Distance (km) Brightness Sun altitude
Rises 17:04:38 0° 146° (SE) 2,742 6.1 -6.4°
Reaches altitude 10° 17:06:51 10° 139° (SE) 1,842 5.2 -6.7°
Maximum altitude 17:10:36 41° 69° (ENE) 813 3.2 -7.3°
Drops below altitude 10° 17:14:19 10° 359° (N) 1,828 5.4 -7.9°
Sets 17:16:31 0° 352° (N) 2,718 6.4 -8.2°
